RYR2WR EDJA-LEPA

Flight info

Callsign RYR2WR
Flight time 1h 37m
Altitude 37000
Route UMTEX1A UMTEX DCT KUDIS DCT KESEX DCT IRMAR DCT OKTET DCT BODRU DCT LUSOL DCT PIVUS DCT VERSO DCT LUNIK
Aircraft A320/M-SDE3FGHIRWY/LB1

Departure

Time 2026-04-24 08:56
Airport Memmingen Allgau Airport (EDJA)

Arrival

Time 2026-04-24 10:33
Airport Palma de Mallorca Airport (LEPA)
Time Latitude Longitude Altitude Speed Heading
2026-04-24 08:17 47.98868 10.23240 2080 ft 0 kts 49°
2026-04-24 08:34 47.98868 10.23239 2080 ft 0 kts 49°
2026-04-24 08:50 47.98867 10.23265 2077 ft 8 kts 115°
2026-04-24 08:50 47.98847 10.23331 2081 ft 5 kts 96°
2026-04-24 08:50 47.98852 10.23373 2081 ft 4 kts 77°
2026-04-24 08:50 47.98863 10.23429 2081 ft 8 kts 71°
2026-04-24 08:51 47.98890 10.23539 2075 ft 15 kts 70°
2026-04-24 08:51 47.98905 10.23687 2077 ft 11 kts 111°
2026-04-24 08:51 47.98897 10.23706 2075 ft 0 kts 127°
2026-04-24 08:52 47.98868 10.23743 2078 ft 7 kts 146°
2026-04-24 08:52 47.98845 10.23860 2075 ft 15 kts 59°
2026-04-24 08:52 47.98887 10.23968 2074 ft 21 kts 60°
2026-04-24 08:53 47.98978 10.24191 2070 ft 30 kts 60°
2026-04-24 08:53 47.99097 10.24494 2068 ft 36 kts 59°
2026-04-24 08:53 47.99227 10.24821 2067 ft 37 kts 58°
2026-04-24 08:53 47.99360 10.25157 2061 ft 38 kts 60°
2026-04-24 08:54 47.99447 10.25428 2058 ft 19 kts 77°
2026-04-24 08:54 47.99472 10.25432 2058 ft 3 kts 218°
2026-04-24 08:54 47.99462 10.25412 2058 ft 0 kts 238°
2026-04-24 08:55 47.99458 10.25403 2058 ft 6 kts 238°
2026-04-24 08:55 47.99306 10.25027 2063 ft 79 kts 239°
2026-04-24 08:55 47.98921 10.24057 2072 ft 136 kts 239°
2026-04-24 08:56 47.98484 10.22929 2395 ft 146 kts 240°
2026-04-24 08:56 47.97989 10.21621 2980 ft 147 kts 239°
2026-04-24 08:56 47.97456 10.20265 3418 ft 156 kts 240°
2026-04-24 08:56 47.96863 10.18775 3597 ft 179 kts 239°
2026-04-24 08:57 47.96167 10.17035 3697 ft 210 kts 239°
2026-04-24 08:57 47.95378 10.15072 4039 ft 231 kts 239°
2026-04-24 08:57 47.94534 10.12972 4571 ft 245 kts 239°
2026-04-24 08:57 47.93673 10.10835 5250 ft 255 kts 240°
2026-04-24 08:58 47.92732 10.08478 5829 ft 271 kts 243°
2026-04-24 08:58 47.92132 10.05795 6650 ft 275 kts 259°
2026-04-24 08:58 47.91763 10.03116 7438 ft 279 kts 259°
2026-04-24 08:58 47.91376 10.00268 8262 ft 282 kts 260°
2026-04-24 08:59 47.90984 9.97380 9098 ft 286 kts 260°
2026-04-24 08:59 47.90585 9.94457 9917 ft 290 kts 260°
2026-04-24 08:59 47.90182 9.91489 10562 ft 299 kts 261°
2026-04-24 08:59 47.89755 9.88323 10791 ft 323 kts 261°
2026-04-24 09:00 47.89291 9.84941 11136 ft 341 kts 258°
2026-04-24 09:00 47.88546 9.81545 11770 ft 349 kts 251°
2026-04-24 09:00 47.87687 9.78137 12484 ft 354 kts 251°
2026-04-24 09:00 47.86819 9.74679 13186 ft 358 kts 251°
2026-04-24 09:01 47.85943 9.71176 13899 ft 363 kts 251°
2026-04-24 09:01 47.85061 9.67639 14526 ft 367 kts 251°
2026-04-24 09:01 47.84105 9.64087 15135 ft 372 kts 245°
2026-04-24 09:01 47.82749 9.60782 15727 ft 378 kts 234°
2026-04-24 09:02 47.81024 9.57795 16345 ft 383 kts 229°
2026-04-24 09:02 47.79241 9.54823 16946 ft 387 kts 229°
2026-04-24 09:02 47.77442 9.51826 17536 ft 390 kts 228°
2026-04-24 09:02 47.75667 9.48873 18119 ft 394 kts 228°
2026-04-24 09:03 47.73820 9.45801 18682 ft 398 kts 228°
2026-04-24 09:03 47.72062 9.42875 19180 ft 401 kts 228°
2026-04-24 09:03 47.70198 9.39775 19707 ft 404 kts 228°
2026-04-24 09:03 47.68295 9.36603 20232 ft 407 kts 228°
2026-04-24 09:04 47.66430 9.33496 20751 ft 410 kts 228°
2026-04-24 09:04 47.64519 9.30323 21279 ft 413 kts 228°
2026-04-24 09:04 47.62592 9.27133 21787 ft 417 kts 228°
2026-04-24 09:04 47.60651 9.23924 22284 ft 420 kts 227°
2026-04-24 09:05 47.58691 9.20687 22819 ft 423 kts 227°
2026-04-24 09:05 47.56724 9.17437 23330 ft 425 kts 227°
2026-04-24 09:05 47.54744 9.14168 23814 ft 428 kts 227°
2026-04-24 09:05 47.52745 9.10875 24210 ft 431 kts 227°
2026-04-24 09:06 47.50734 9.07570 24613 ft 433 kts 227°
2026-04-24 09:06 47.48717 9.04256 25010 ft 435 kts 227°
2026-04-24 09:06 47.46686 9.00921 25401 ft 437 kts 227°
2026-04-24 09:06 47.44636 8.97583 25785 ft 439 kts 225°
2026-04-24 09:07 47.42372 8.94566 26145 ft 440 kts 218°
2026-04-24 09:07 47.39999 8.91689 26508 ft 442 kts 218°
2026-04-24 09:07 47.35230 8.85908 27237 ft 446 kts 218°
2026-04-24 09:08 47.32829 8.82996 27608 ft 447 kts 218°
2026-04-24 09:08 47.30418 8.80073 27948 ft 449 kts 218°
2026-04-24 09:08 47.27998 8.77147 28288 ft 451 kts 218°
2026-04-24 09:08 47.25567 8.74209 28620 ft 453 kts 218°
2026-04-24 09:09 47.23059 8.71395 28948 ft 453 kts 211°
2026-04-24 09:09 47.20337 8.69045 29267 ft 454 kts 207°
2026-04-24 09:09 47.17589 8.66767 29653 ft 454 kts 207°
2026-04-24 09:09 47.14838 8.64493 29970 ft 455 kts 207°
2026-04-24 09:10 47.12074 8.62207 30252 ft 456 kts 207°
2026-04-24 09:10 47.09307 8.59920 30493 ft 458 kts 207°
2026-04-24 09:10 47.06526 8.57620 30722 ft 459 kts 207°
2026-04-24 09:10 47.03740 8.55311 30930 ft 461 kts 207°
2026-04-24 09:11 47.00944 8.52995 31132 ft 463 kts 207°
2026-04-24 09:11 46.98139 8.50679 31418 ft 462 kts 207°
2026-04-24 09:11 46.95342 8.48375 31717 ft 461 kts 207°
2026-04-24 09:11 46.92543 8.46079 32006 ft 461 kts 207°
2026-04-24 09:12 46.90166 8.44132 32238 ft 460 kts 207°
2026-04-24 09:12 46.89223 8.43359 32336 ft 459 kts 207°
2026-04-24 09:12 46.85386 8.40729 32750 ft 451 kts 201°
2026-04-24 09:13 46.82555 8.38688 32876 ft 456 kts 207°
2026-04-24 09:13 46.79808 8.36344 33104 ft 458 kts 210°
2026-04-24 09:13 46.77105 8.33866 33379 ft 458 kts 210°
2026-04-24 09:13 46.74406 8.31387 33640 ft 458 kts 210°
2026-04-24 09:14 46.71680 8.28974 33902 ft 458 kts 208°
2026-04-24 09:14 46.68967 8.26682 34189 ft 456 kts 207°
2026-04-24 09:14 46.66196 8.24427 34449 ft 455 kts 207°
2026-04-24 09:14 46.63388 8.22188 34732 ft 454 kts 206°
2026-04-24 09:15 46.60617 8.19993 35005 ft 453 kts 206°
2026-04-24 09:15 46.57894 8.17828 35254 ft 452 kts 206°
2026-04-24 09:15 46.55142 8.15625 35504 ft 451 kts 207°
2026-04-24 09:15 46.52396 8.13416 35732 ft 451 kts 207°
2026-04-24 09:16 46.49661 8.11206 35951 ft 450 kts 207°
2026-04-24 09:16 46.46929 8.08994 36169 ft 449 kts 207°
2026-04-24 09:16 46.44198 8.06784 36363 ft 449 kts 207°
2026-04-24 09:16 46.41472 8.04582 36562 ft 448 kts 207°
2026-04-24 09:17 46.38752 8.02393 36792 ft 446 kts 207°
2026-04-24 09:17 46.36039 8.00216 37004 ft 444 kts 207°
2026-04-24 09:17 46.33344 7.98056 37149 ft 443 kts 206°
2026-04-24 09:17 46.30647 7.95900 37192 ft 443 kts 206°
2026-04-24 09:18 46.25255 7.91603 37190 ft 443 kts 206°
2026-04-24 09:18 46.19861 7.87309 37189 ft 443 kts 206°
2026-04-24 09:19 46.14434 7.82981 37188 ft 443 kts 206°
2026-04-24 09:19 46.09072 7.78722 37182 ft 442 kts 206°
2026-04-24 09:20 46.03640 7.74417 37182 ft 443 kts 206°
2026-04-24 09:20 45.98229 7.70142 37180 ft 444 kts 206°
2026-04-24 09:21 45.92814 7.65882 37178 ft 444 kts 206°
2026-04-24 09:21 45.87404 7.61628 37182 ft 444 kts 206°
2026-04-24 09:22 45.82025 7.57402 37182 ft 444 kts 206°
2026-04-24 09:22 45.76612 7.53161 37185 ft 443 kts 206°
2026-04-24 09:23 45.71202 7.48936 37180 ft 443 kts 206°
2026-04-24 09:23 45.65786 7.44715 37173 ft 443 kts 206°
2026-04-24 09:24 45.60367 7.40501 37168 ft 444 kts 206°
2026-04-24 09:24 45.54936 7.36284 37170 ft 444 kts 206°
2026-04-24 09:25 45.49516 7.32073 37180 ft 444 kts 206°
2026-04-24 09:25 45.44083 7.27866 37183 ft 444 kts 206°
2026-04-24 09:26 45.38654 7.23684 37182 ft 444 kts 206°
2026-04-24 09:26 45.33217 7.19509 37192 ft 444 kts 206°
2026-04-24 09:27 45.27779 7.15344 37192 ft 444 kts 206°
2026-04-24 09:27 45.22342 7.11174 37194 ft 444 kts 206°
2026-04-24 09:28 45.16904 7.07006 37196 ft 444 kts 206°
2026-04-24 09:28 45.11464 7.02867 37194 ft 444 kts 206°
2026-04-24 09:29 45.06017 6.98727 37186 ft 444 kts 206°
2026-04-24 09:29 45.00575 6.94585 37180 ft 444 kts 206°
2026-04-24 09:30 44.95121 6.90458 37168 ft 445 kts 206°
2026-04-24 09:30 44.89662 6.86337 37183 ft 445 kts 206°
2026-04-24 09:31 44.84229 6.82239 37186 ft 446 kts 206°
2026-04-24 09:31 44.78762 6.78120 37194 ft 446 kts 205°
2026-04-24 09:32 44.73233 6.74169 37185 ft 445 kts 204°
2026-04-24 09:32 44.67678 6.70341 37179 ft 445 kts 204°
2026-04-24 09:33 44.62124 6.66488 37185 ft 445 kts 204°
2026-04-24 09:33 44.56574 6.62602 37187 ft 445 kts 204°
2026-04-24 09:34 44.51035 6.58726 37188 ft 445 kts 204°
2026-04-24 09:34 44.45491 6.54860 37181 ft 445 kts 204°
2026-04-24 09:35 44.40849 6.51623 37184 ft 445 kts 204°
2026-04-24 09:35 44.35342 6.47788 37193 ft 445 kts 204°
2026-04-24 09:36 44.29789 6.43946 37189 ft 445 kts 204°
2026-04-24 09:36 44.24245 6.40118 37189 ft 445 kts 204°
2026-04-24 09:37 44.18688 6.36290 37163 ft 446 kts 204°
2026-04-24 09:37 44.13126 6.32448 37181 ft 446 kts 205°
2026-04-24 09:38 44.07561 6.28612 37181 ft 446 kts 204°
2026-04-24 09:38 44.01988 6.24791 37173 ft 447 kts 204°
2026-04-24 09:39 43.96402 6.20971 37170 ft 448 kts 204°
2026-04-24 09:39 43.90812 6.17153 37176 ft 448 kts 204°
2026-04-24 09:40 43.85210 6.13339 37183 ft 448 kts 205°
2026-04-24 09:40 43.79604 6.09529 37177 ft 449 kts 205°
2026-04-24 09:41 43.74462 6.04632 37174 ft 451 kts 220°
2026-04-24 09:41 43.69750 5.98913 37184 ft 451 kts 220°
2026-04-24 09:42 43.65018 5.93211 37186 ft 452 kts 220°
2026-04-24 09:42 43.60277 5.87518 37187 ft 452 kts 220°
2026-04-24 09:43 43.55559 5.81864 37188 ft 452 kts 220°
2026-04-24 09:43 43.50803 5.76186 37191 ft 452 kts 220°
2026-04-24 09:44 43.46049 5.70509 37191 ft 453 kts 221°
2026-04-24 09:44 43.41281 5.64839 37193 ft 453 kts 221°
2026-04-24 09:45 43.36520 5.59166 37197 ft 453 kts 221°
2026-04-24 09:45 43.31753 5.53508 37201 ft 453 kts 221°
2026-04-24 09:46 43.26983 5.47875 37207 ft 453 kts 221°
2026-04-24 09:46 43.22206 5.42236 37204 ft 453 kts 221°
2026-04-24 09:47 43.17431 5.36603 37203 ft 453 kts 221°
2026-04-24 09:47 43.12657 5.30973 37196 ft 453 kts 221°
2026-04-24 09:48 43.07858 5.25348 37185 ft 454 kts 222°
2026-04-24 09:48 43.03057 5.19737 37186 ft 455 kts 222°
2026-04-24 09:49 42.98243 5.14113 37194 ft 456 kts 222°
2026-04-24 09:49 42.93455 5.08523 37197 ft 456 kts 222°
2026-04-24 09:50 42.88630 5.02900 37205 ft 456 kts 222°
2026-04-24 09:50 42.83798 4.97286 37203 ft 457 kts 222°
2026-04-24 09:51 42.78959 4.91678 37189 ft 457 kts 223°
2026-04-24 09:51 42.74106 4.86075 37196 ft 457 kts 223°
2026-04-24 09:52 42.69250 4.80479 37199 ft 458 kts 223°
2026-04-24 09:52 42.64386 4.74890 37203 ft 458 kts 222°
2026-04-24 09:53 42.59523 4.69300 37208 ft 458 kts 223°
2026-04-24 09:53 42.54659 4.63720 37210 ft 458 kts 222°
2026-04-24 09:54 42.49791 4.58157 37212 ft 458 kts 223°
2026-04-24 09:54 42.44917 4.52589 37206 ft 457 kts 222°
2026-04-24 09:55 42.40079 4.47086 37215 ft 457 kts 222°
2026-04-24 09:55 42.35217 4.41553 37217 ft 457 kts 222°
2026-04-24 09:56 42.30350 4.36029 37215 ft 456 kts 222°
2026-04-24 09:56 42.25482 4.30522 37207 ft 456 kts 222°
2026-04-24 09:57 42.20610 4.25018 37212 ft 456 kts 222°
2026-04-24 09:57 42.15740 4.19533 37211 ft 456 kts 222°
2026-04-24 09:58 42.10870 4.14062 37210 ft 455 kts 222°
2026-04-24 09:58 42.06007 4.08601 37211 ft 455 kts 222°
2026-04-24 09:59 42.01153 4.03146 37212 ft 455 kts 222°
2026-04-24 09:59 41.96316 3.97738 37212 ft 455 kts 220°
2026-04-24 10:00 41.90785 3.93468 37209 ft 459 kts 201°
2026-04-24 10:00 41.84585 3.91564 37212 ft 461 kts 191°
2026-04-24 10:01 41.78259 3.90115 37214 ft 461 kts 191°
2026-04-24 10:01 41.71942 3.88640 37213 ft 461 kts 191°
2026-04-24 10:02 41.65618 3.87169 37210 ft 461 kts 191°
2026-04-24 10:02 41.59305 3.85716 37209 ft 460 kts 191°
2026-04-24 10:03 41.52989 3.84277 37210 ft 460 kts 191°
2026-04-24 10:03 41.46673 3.82833 37207 ft 460 kts 191°
2026-04-24 10:04 41.40366 3.81388 37216 ft 460 kts 191°
2026-04-24 10:04 41.34073 3.79950 37208 ft 459 kts 191°
2026-04-24 10:05 41.27785 3.78525 37213 ft 458 kts 191°
2026-04-24 10:05 41.21510 3.77101 37218 ft 457 kts 191°
2026-04-24 10:06 41.12301 3.74169 36825 ft 452 kts 203°
2026-04-24 10:06 41.09372 3.72639 36566 ft 453 kts 203°
2026-04-24 10:07 41.06431 3.71111 36300 ft 453 kts 203°
2026-04-24 10:07 41.03487 3.69586 36044 ft 454 kts 203°
2026-04-24 10:07 41.00541 3.68071 35793 ft 455 kts 203°
2026-04-24 10:07 40.97592 3.66560 35543 ft 455 kts 203°
2026-04-24 10:08 40.94631 3.65046 35293 ft 456 kts 203°
2026-04-24 10:08 40.91708 3.63549 35052 ft 457 kts 203°
2026-04-24 10:08 40.88743 3.62030 34812 ft 458 kts 203°
2026-04-24 10:08 40.85774 3.60506 34572 ft 458 kts 203°
2026-04-24 10:09 40.82798 3.58984 34328 ft 459 kts 203°
2026-04-24 10:09 40.79822 3.57465 34076 ft 459 kts 203°
2026-04-24 10:09 40.76841 3.55943 33801 ft 459 kts 203°
2026-04-24 10:09 40.73862 3.54421 33536 ft 460 kts 203°
2026-04-24 10:10 40.70876 3.52898 33274 ft 460 kts 203°
2026-04-24 10:10 40.67895 3.51381 33006 ft 459 kts 203°
2026-04-24 10:10 40.64925 3.49870 32735 ft 457 kts 203°
2026-04-24 10:10 40.61961 3.48362 32476 ft 455 kts 203°
2026-04-24 10:11 40.59012 3.46865 32212 ft 454 kts 203°
2026-04-24 10:11 40.56069 3.45373 31955 ft 452 kts 203°
2026-04-24 10:11 40.53147 3.43893 31699 ft 450 kts 203°
2026-04-24 10:11 40.50231 3.42414 31452 ft 448 kts 203°
2026-04-24 10:12 40.47325 3.40950 31138 ft 445 kts 201°
2026-04-24 10:12 40.44347 3.39860 30539 ft 445 kts 192°
2026-04-24 10:12 40.41276 3.39433 29885 ft 444 kts 182°
2026-04-24 10:12 40.38203 3.39562 29312 ft 440 kts 179°
2026-04-24 10:13 40.35159 3.39747 28734 ft 435 kts 179°
2026-04-24 10:13 40.32146 3.39926 28173 ft 432 kts 179°
2026-04-24 10:13 40.29162 3.40100 27611 ft 428 kts 179°
2026-04-24 10:13 40.26196 3.40268 27065 ft 425 kts 179°
2026-04-24 10:14 40.23257 3.40432 26518 ft 421 kts 179°
2026-04-24 10:14 40.20339 3.40594 25983 ft 419 kts 179°
2026-04-24 10:14 40.17439 3.40757 25480 ft 416 kts 179°
2026-04-24 10:14 40.14597 3.40918 24982 ft 413 kts 179°
2026-04-24 10:15 40.11735 3.41082 24494 ft 410 kts 179°
2026-04-24 10:15 40.08891 3.41244 24003 ft 409 kts 178°
2026-04-24 10:15 40.06053 3.41405 23474 ft 407 kts 178°
2026-04-24 10:15 40.03240 3.41563 22978 ft 403 kts 178°
2026-04-24 10:16 40.00445 3.41721 22501 ft 400 kts 178°
2026-04-24 10:16 39.97682 3.41877 22016 ft 397 kts 178°
2026-04-24 10:16 39.94935 3.42033 21533 ft 394 kts 178°
2026-04-24 10:16 39.92200 3.42187 21051 ft 391 kts 178°
2026-04-24 10:17 39.89486 3.42339 20553 ft 390 kts 178°
2026-04-24 10:17 39.86781 3.42490 20062 ft 388 kts 178°
2026-04-24 10:17 39.84090 3.42639 19564 ft 387 kts 178°
2026-04-24 10:17 39.81408 3.42787 19066 ft 386 kts 178°
2026-04-24 10:18 39.78729 3.42936 18566 ft 385 kts 178°
2026-04-24 10:18 39.76054 3.43081 18024 ft 384 kts 179°
2026-04-24 10:18 39.73417 3.42790 17534 ft 379 kts 195°
2026-04-24 10:18 39.70973 3.41606 17057 ft 372 kts 211°
2026-04-24 10:19 39.68914 3.39643 16577 ft 365 kts 227°
2026-04-24 10:19 39.67358 3.37089 16106 ft 358 kts 243°
2026-04-24 10:19 39.66230 3.34232 15651 ft 354 kts 246°
2026-04-24 10:19 39.65136 3.31384 15196 ft 352 kts 246°
2026-04-24 10:20 39.64053 3.28580 14980 ft 337 kts 246°
2026-04-24 10:20 39.62853 3.26032 14390 ft 333 kts 230°
2026-04-24 10:20 39.61003 3.24177 13917 ft 342 kts 214°
2026-04-24 10:20 39.58926 3.22655 13390 ft 344 kts 212°
2026-04-24 10:21 39.56851 3.21125 12875 ft 341 kts 218°
2026-04-24 10:21 39.55193 3.19115 12567 ft 315 kts 237°
2026-04-24 10:21 39.54162 3.16730 12309 ft 296 kts 253°
2026-04-24 10:21 39.53503 3.14229 12060 ft 292 kts 254°
2026-04-24 10:22 39.53075 3.12578 11894 ft 293 kts 254°
2026-04-24 10:22 39.52430 3.10078 11532 ft 292 kts 254°
2026-04-24 10:22 39.51788 3.07593 11173 ft 291 kts 254°
2026-04-24 10:22 39.51148 3.05117 10807 ft 289 kts 254°
2026-04-24 10:23 39.50511 3.02654 10473 ft 287 kts 254°
2026-04-24 10:23 39.49879 3.00215 10143 ft 285 kts 253°
2026-04-24 10:23 39.49252 2.97798 9788 ft 282 kts 253°
2026-04-24 10:23 39.48629 2.95396 9428 ft 282 kts 252°
2026-04-24 10:24 39.48006 2.92993 9070 ft 281 kts 253°
2026-04-24 10:24 39.47381 2.90601 8713 ft 280 kts 253°
2026-04-24 10:24 39.46758 2.88218 8355 ft 279 kts 252°
2026-04-24 10:24 39.46136 2.85841 8006 ft 279 kts 252°
2026-04-24 10:25 39.45512 2.83465 7664 ft 279 kts 252°
2026-04-24 10:25 39.44888 2.81088 7313 ft 279 kts 252°
2026-04-24 10:25 39.44263 2.78712 6978 ft 279 kts 252°
2026-04-24 10:25 39.43653 2.76334 6643 ft 279 kts 255°
2026-04-24 10:26 39.43339 2.73918 6307 ft 279 kts 264°
2026-04-24 10:26 39.43117 2.71372 5947 ft 279 kts 263°
2026-04-24 10:26 39.42893 2.68881 5598 ft 279 kts 263°
2026-04-24 10:26 39.42663 2.66391 5214 ft 279 kts 263°
2026-04-24 10:27 39.42434 2.63907 4764 ft 274 kts 263°
2026-04-24 10:27 39.42214 2.61506 4305 ft 264 kts 262°
2026-04-24 10:27 39.42002 2.59192 3853 ft 255 kts 262°
2026-04-24 10:27 39.41796 2.56948 3413 ft 248 kts 262°
2026-04-24 10:28 39.41666 2.54758 2954 ft 241 kts 276°
2026-04-24 10:28 39.42304 2.52827 2503 ft 233 kts 316°
2026-04-24 10:28 39.43633 2.51868 2305 ft 209 kts 355°
2026-04-24 10:28 39.44991 2.52006 2311 ft 194 kts 26°
2026-04-24 10:29 39.46077 2.52966 2311 ft 189 kts 54°
2026-04-24 10:29 39.46790 2.54378 2319 ft 188 kts 61°
2026-04-24 10:29 39.47473 2.55820 2317 ft 188 kts 61°
2026-04-24 10:29 39.48158 2.57261 2310 ft 187 kts 61°
2026-04-24 10:30 39.48839 2.58694 2164 ft 186 kts 61°
2026-04-24 10:30 39.49516 2.60117 1952 ft 185 kts 60°
2026-04-24 10:30 39.50188 2.61530 1740 ft 182 kts 60°
2026-04-24 10:30 39.50844 2.62912 1466 ft 178 kts 60°
2026-04-24 10:31 39.51478 2.64245 1240 ft 168 kts 60°
2026-04-24 10:31 39.52061 2.65472 1017 ft 151 kts 60°
2026-04-24 10:31 39.52581 2.66567 837 ft 137 kts 60°
2026-04-24 10:31 39.53072 2.67605 673 ft 133 kts 61°
2026-04-24 10:32 39.53557 2.68626 504 ft 132 kts 59°
2026-04-24 10:32 39.54035 2.69636 319 ft 131 kts 58°
2026-04-24 10:32 39.54517 2.70639 152 ft 129 kts 59°
2026-04-24 10:32 39.54977 2.71626 40 ft 122 kts 59°
2026-04-24 10:33 39.55338 2.72386 38 ft 74 kts 58°
2026-04-24 10:33 39.55499 2.72807 38 ft 41 kts 84°
2026-04-24 10:33 39.55501 2.73085 38 ft 14 kts 90°
2026-04-24 10:33 39.55456 2.73082 38 ft 9 kts 238°
2026-04-24 10:34 39.55428 2.73020 38 ft 8 kts 239°
2026-04-24 10:34 39.55397 2.72956 38 ft 10 kts 238°
2026-04-24 10:34 39.55348 2.72852 38 ft 19 kts 238°
2026-04-24 10:34 39.55276 2.72701 38 ft 19 kts 239°
2026-04-24 10:35 39.55213 2.72566 38 ft 16 kts 238°
2026-04-24 10:35 39.55146 2.72483 38 ft 12 kts 177°
2026-04-24 10:35 39.55070 2.72528 38 ft 12 kts 147°
2026-04-24 10:35 39.55050 2.72615 38 ft 8 kts 85°
2026-04-24 10:36 39.55009 2.72662 38 ft 6 kts 146°
2026-04-24 10:36 39.54998 2.72671 38 ft 0 kts 146°